Tiempo cada hora Arama

Hoy, 19 Enero, Martes

Tiempo Temperatura Precipitaciones Viento Presión Humedad
00:00 +5°C° 0 mm 2 mps 738 mmHg 88%
01:00 +5°C° 0 mm 2 mps 737 mmHg 87%
02:00 +4°C° 0 mm 2 mps 737 mmHg 87%
03:00 +3°C° 0 mm 3 mps 736 mmHg 87%
04:00 +3°C° 0 mm 3 mps 736 mmHg 87%
05:00 +3°C° 0 mm 3 mps 736 mmHg 87%
06:00 +2°C° 0 mm 3 mps 736 mmHg 86%
07:00 +3°C° 0 mm 3 mps 735 mmHg 85%
08:00 +3°C° 0 mm 3 mps 735 mmHg 83%
09:00 +4°C° 0 mm 3 mps 735 mmHg 81%
10:00 +5°C° 0 mm 3 mps 735 mmHg 75%
11:00 +8°C° 0 mm 3 mps 735 mmHg 70%
12:00 +10°C° 0 mm 3 mps 734 mmHg 64%
13:00 +10°C° 0 mm 3 mps 734 mmHg 63%
14:00 +10°C° 0 mm 3 mps 733 mmHg 62%
15:00 +10°C° 0 mm 3 mps 732 mmHg 61%
16:00 +9°C° 0 mm 3 mps 732 mmHg 66%
17:00 +6°C° 0 mm 4 mps 731 mmHg 71%
18:00 +5°C° 0 mm 4 mps 731 mmHg 76%
19:00 +5°C° 0 mm 4 mps 731 mmHg 76%
20:00 +5°C° 0 mm 4 mps 730 mmHg 75%
21:00 +5°C° 0 mm 4 mps 730 mmHg 74%
22:00 +4°C° 0 mm 4 mps 730 mmHg 75%
23:00 +4°C° 0 mm 4 mps 729 mmHg 75%

Mañana, 20 Enero, Miércoles

Tiempo Temperatura Precipitaciones Viento Presión Humedad
00:00 +4°C° 0 mm 4 mps 729 mmHg 76%
01:00 +4°C° 0 mm 4 mps 728 mmHg 75%
02:00 +4°C° 0 mm 4 mps 727 mmHg 75%
03:00 +4°C° 0 mm 4 mps 726 mmHg 75%
04:00 +4°C° 0 mm 4 mps 726 mmHg 75%
05:00 +4°C° 0 mm 4 mps 726 mmHg 76%
06:00 +4°C° 0 mm 4 mps 726 mmHg 76%
07:00 +4°C° 0 mm 4 mps 725 mmHg 75%
08:00 +4°C° 0 mm 4 mps 725 mmHg 74%
09:00 +5°C° 0 mm 5 mps 725 mmHg 73%
10:00 +6°C° 0 mm 5 mps 724 mmHg 72%
11:00 +7°C° 0 mm 5 mps 724 mmHg 71%
12:00 +8°C° 0 mm 5 mps 723 mmHg 69%
13:00 +8°C° 0 mm 5 mps 723 mmHg 70%
14:00 +8°C° 0 mm 5 mps 722 mmHg 71%
15:00 +9°C° 0 mm 5 mps 721 mmHg 72%
16:00 +8°C° 0 mm 5 mps 721 mmHg 75%
17:00 +8°C° 0 mm 5 mps 721 mmHg 78%
18:00 +7°C° 0 mm 5 mps 721 mmHg 81%
19:00 +7°C° 0 mm 5 mps 721 mmHg 82%
20:00 +7°C° 0 mm 5 mps 722 mmHg 82%
21:00 +7°C° 0 mm 5 mps 722 mmHg 83%
22:00 +7°C° 0 mm 4 mps 722 mmHg 84%
23:00 +7°C° 0 mm 4 mps 722 mmHg 85%

Pasado mañana, 21 Enero, Jueves

Tiempo Temperatura Precipitaciones Viento Presión Humedad
00:00 +7°C° 0 mm 4 mps 723 mmHg 86%
01:00 +7°C° 0 mm 3 mps 723 mmHg 87%
02:00 +7°C° 0 mm 3 mps 723 mmHg 87%
03:00 +7°C° 0 mm 3 mps 723 mmHg 88%
04:00 +7°C° 0 mm 3 mps 724 mmHg 88%
05:00 +7°C° 0 mm 3 mps 724 mmHg 88%
06:00 +8°C° 0 mm 3 mps 724 mmHg 87%
07:00 +8°C° 0 mm 3 mps 724 mmHg 86%
08:00 +7°C° 0 mm 4 mps 724 mmHg 85%
09:00 +7°C° 0 mm 4 mps 724 mmHg 83%
10:00 +9°C° 0 mm 5 mps 723 mmHg 78%
11:00 +10°C° 0 mm 6 mps 723 mmHg 73%
12:00 +11°C° 0 mm 7 mps 723 mmHg 68%
13:00 +11°C° 0.2 mm 6 mps 722 mmHg 72%
14:00 +10°C° 0.2 mm 6 mps 721 mmHg 76%
15:00 +10°C° 0.2 mm 5 mps 721 mmHg 80%
16:00 +10°C° 0.3 mm 5 mps 721 mmHg 81%
17:00 +9°C° 0.3 mm 5 mps 721 mmHg 82%
18:00 +10°C° 0.3 mm 4 mps 721 mmHg 84%
19:00 +8°C° 0 mm 5 mps 721 mmHg 79%
20:00 +8°C° 0 mm 6 mps 721 mmHg 75%
21:00 +8°C° 0 mm 6 mps 722 mmHg 70%
22:00 +7°C° 0 mm 6 mps 722 mmHg 72%
23:00 +7°C° 0 mm 6 mps 723 mmHg 74%

22 Enero, Viernes

Tiempo Temperatura Precipitaciones Viento Presión Humedad
00:00 +7°C° 0 mm 6 mps 724 mmHg 77%
01:00 +7°C° 0.3 mm 4 mps 724 mmHg 80%
02:00 +7°C° 0.3 mm 3 mps 724 mmHg 83%
03:00 +7°C° 0.3 mm 2 mps 725 mmHg 87%
04:00 +7°C° 0.1 mm 2 mps 724 mmHg 87%
05:00 +7°C° 0.1 mm 2 mps 724 mmHg 88%
06:00 +6°C° 0.1 mm 2 mps 723 mmHg 88%
07:00 +5°C° 0.6 mm 3 mps 723 mmHg 89%
08:00 +5°C° 0.6 mm 3 mps 722 mmHg 89%
09:00 +5°C° 0.6 mm 4 mps 722 mmHg 90%
10:00 +6°C° 0.5 mm 4 mps 722 mmHg 88%
11:00 +7°C° 0.5 mm 4 mps 722 mmHg 85%
12:00 +7°C° 0.5 mm 4 mps 723 mmHg 83%
13:00 +7°C° 1 mm 4 mps 723 mmHg 86%
14:00 +6°C° 1 mm 4 mps 724 mmHg 89%
15:00 +5°C° 1 mm 4 mps 725 mmHg 91%
16:00 +5°C° 0.1 mm 3 mps 725 mmHg 92%
17:00 +5°C° 0.1 mm 2 mps 726 mmHg 92%
18:00 +6°C° 0.1 mm 1 mps 726 mmHg 93%
19:00 +6°C° 0 mm 1 mps 727 mmHg 92%
20:00 +4°C° 0 mm 2 mps 727 mmHg 92%
21:00 +4°C° 0 mm 2 mps 727 mmHg 91%
22:00 +3°C° 0 mm 3 mps 727 mmHg 89%
23:00 +3°C° 0 mm 3 mps 727 mmHg 87%

23 Enero, Sábado

Tiempo Temperatura Precipitaciones Viento Presión Humedad
00:00 +3°C° 0 mm 4 mps 726 mmHg 85%
01:00 +4°C° 0.1 mm 4 mps 726 mmHg 86%
02:00 +3°C° 0.1 mm 5 mps 726 mmHg 87%
03:00 +3°C° 0.1 mm 5 mps 725 mmHg 87%
04:00 +5°C° 0.4 mm 5 mps 725 mmHg 88%
05:00 +5°C° 0.4 mm 5 mps 725 mmHg 88%
06:00 +5°C° 0.4 mm 5 mps 725 mmHg 88%
07:00 +6°C° 0.4 mm 4 mps 726 mmHg 88%
08:00 +6°C° 0.4 mm 4 mps 726 mmHg 87%
09:00 +7°C° 0.4 mm 3 mps 726 mmHg 86%
10:00 +7°C° 0.1 mm 4 mps 726 mmHg 84%
11:00 +8°C° 0.1 mm 4 mps 725 mmHg 82%
12:00 +8°C° 0.1 mm 5 mps 724 mmHg 80%
13:00 +9°C° 0.3 mm 5 mps 724 mmHg 81%
14:00 +9°C° 0.3 mm 5 mps 723 mmHg 82%
15:00 +10°C° 0.3 mm 4 mps 722 mmHg 83%
16:00 +9°C° 0.9 mm 3 mps 722 mmHg 87%
17:00 +9°C° 0.9 mm 2 mps 722 mmHg 92%
18:00 +10°C° 0.9 mm 1 mps 722 mmHg 96%
19:00 +10°C° 0.4 mm 1 mps 723 mmHg 96%
20:00 +10°C° 0.4 mm 1 mps 723 mmHg 96%
21:00 +9°C° 0.4 mm 2 mps 723 mmHg 96%
22:00 +9°C° 0.1 mm 2 mps 723 mmHg 95%
23:00 +8°C° 0.1 mm 2 mps 724 mmHg 93%

24 Enero, Domingo

Tiempo Temperatura Precipitaciones Viento Presión Humedad
00:00 +8°C° 0.1 mm 2 mps 724 mmHg 91%
01:00 +8°C° 0.3 mm 2 mps 724 mmHg 91%
02:00 +8°C° 0.3 mm 2 mps 724 mmHg 90%
03:00 +7°C° 0.3 mm 3 mps 725 mmHg 89%
04:00 +7°C° 0.8 mm 3 mps 725 mmHg 91%
05:00 +7°C° 0.8 mm 2 mps 726 mmHg 92%
06:00 +7°C° 0.8 mm 2 mps 726 mmHg 93%
07:00 +8°C° 0.6 mm 2 mps 727 mmHg 92%
08:00 +8°C° 0.6 mm 3 mps 727 mmHg 91%
09:00 +8°C° 0.6 mm 3 mps 728 mmHg 90%
10:00 +8°C° 0.5 mm 3 mps 728 mmHg 88%
11:00 +8°C° 0.5 mm 3 mps 728 mmHg 86%
12:00 +9°C° 0.5 mm 3 mps 729 mmHg 84%
13:00 +9°C° 0.4 mm 3 mps 729 mmHg 82%
14:00 +9°C° 0.4 mm 3 mps 729 mmHg 80%
15:00 +10°C° 0.4 mm 3 mps 729 mmHg 77%
16:00 +9°C° 0.8 mm 3 mps 729 mmHg 83%
17:00 +8°C° 0.8 mm 2 mps 729 mmHg 89%
18:00 +7°C° 0.8 mm 2 mps 730 mmHg 95%
19:00 +7°C° 0.3 mm 2 mps 730 mmHg 94%
20:00 +7°C° 0.3 mm 2 mps 731 mmHg 94%
21:00 +8°C° 0.3 mm 1 mps 731 mmHg 94%
22:00 +8°C° 0.2 mm 1 mps 732 mmHg 94%
23:00 +8°C° 0.2 mm 1 mps 732 mmHg 94%
Mostrar más

Necesitamos Su Consentimiento

Meteoprog y nuestros Proveedores de Servicios pueden almacenar y acceder a sus datos personales como cookies, identificadores de dispositivo u otras tecnologías similares de su dispositivo y procesar dichos datos para personalizar contenido y anuncios, además de ofrecer funciones de redes sociales y analizar el tráfico.

  • Almacenar y/o acceder a información en su dispositivo

    Se puede almacenar o acceder a cookies, identificadores de dispositivo u otra información de su dispositivo para los fines anteriormente indicados.

  • Anuncios y contenido personalizados, medición de anuncios y contenido, percepciones del público, y desarrollo de productos

    Los anuncios y el contenido pueden personalizarse en base a su perfil. Se pueden añadir más datos para personalizar mejor los anuncios y contenidos. Se puede medir el rendimiento de los anuncios y contenidos. Se puede obtener la percepción sobre el público que ha visto los anuncios y contenidos. Dichos datos pueden usarse para desarrollar o mejorar la experiencia del usuario, sistemas y software.

Al hacer clic en ‘Estoy De Acuerdo’ usted permitirá el uso de las cookies, identificadores de dispositivo, balizas web u otras tecnologías similares indicadas. Su configuración puede cambiarse desde el navegador de su dispositivo.

Para ciertos fines, los intereses legítimos pueden ser considerados por encima del consentimiento. Puede leer más sobre ello en nuestra Política de Privacidad y Cookies.